{"data":{"norad_id":64704,"epoch":"2026-05-25T03:18:28.169856Z","epoch_age_seconds":53203,"freshness":"FRESH","line1":"1 64704U 25142J   26145.13782604  .00004613  00000+0  39403-3 0  9999","line2":"2 64704  70.0000 121.6390 0003699 264.0347  96.0390 14.98337292 50948","mean_motion":14.98337292,"eccentricity":0.0003699,"inclination_deg":70,"raan_deg":121.639,"arg_perigee_deg":264.0347,"mean_anomaly_deg":96.039,"bstar":0.00039403,"rev_number":5094,"period_min":96.106531399073,"perigee_km":569.46247311821,"apogee_km":574.60420913657,"semimajor_km":6950.1703411274,"source":"CELESTRAK","updated_at":"2026-05-25T13:38:20.512654Z"}}